Location: Unspecified
(50.7822°N, 1.1356°W)
Time: 12:29:43
(UTC+00:00)

Cosmos 1674 - Visible Passes

Search period start: 22 January 2018 00:00
Search period end: 01 February 2018 00:00
Orbit: 496 x 522 km, 82.5° (Epoch: 22 January)

Date Brightness Start Highest point End Pass type
(mag) Time Alt. Az. Time Alt. Az. Time Alt. Az.
22 Jan 4.1 17:48:30 10° SW 17:52:03 40° WNW 17:55:36 10° N visible
23 Jan 3.6 17:31:23 10° SSW 17:35:02 50° WNW 17:38:42 10° N visible
24 Jan 3.2 17:14:20 10° SSW 17:18:02 64° WNW 17:21:46 10° N visible
26 Jan 5.8 18:19:05 10° W 18:20:14 11° WNW 18:21:22 10° NW visible
27 Jan 5.6 18:01:12 10° W 18:03:08 13° WNW 18:05:04 10° NNW visible
28 Jan 5.4 17:43:38 10° WSW 17:46:03 16° WNW 17:48:28 10° NNW visible
29 Jan 5.3 17:26:11 10° WSW 17:28:58 20° WNW 17:31:46 10° NNW visible
